Hourly Data Report for October 19, 2016

All times are specified in Local Standard Time (LST). Add 1 hour to adjust for Daylight Saving Time where and when it is observed.

CHARLOTTETOWN A
PRINCE EDWARD ISLAND

46°17'21.000" N
63°07'09.000" W
48.50 m
8300301
71706
YYG

Download Data

Hourly Data (October 2016)
Hourly Data Report for October 19, 2016
Temp Definition
°C
Dew Point Temp Definition
°C
Rel Hum Definition
%
Wind Dir Definition
10's deg

Wind Spd Definition
km/h
Visibility Definition
km
Stn Press Definition
kPa
Hmdx Definition


Wind Chill Definition


Weather Definition


TIME
00:00 Legend Double Dagger 12.0 8.7 80 17 44 24.1 100.47     LegendNANA
01:00 Legend Double Dagger 12.8 9.8 82 17 40 24.1 100.36     LegendNANA
02:00 Legend Double Dagger 13.4 11.0 85 18 38 24.1 100.22     Cloudy
03:00 Legend Double Dagger 14.3 12.4 88 19 41 24.1 100.11     LegendNANA
04:00 Legend Double Dagger 14.9 13.5 91 19 36 24.1 100.01     Rain Showers
05:00 Legend Double Dagger 14.8 13.9 94 19 25 16.1 99.96     Rain Showers
06:00 Legend Double Dagger 15.9 14.8 93 20 27 9.7 99.87     Rain Showers,Fog
07:00 Legend Double Dagger 16.5 15.2 92 22 23 16.1 99.93     Rain Showers
08:00 Legend Double Dagger 17.0 15.4 90 23 24 19.3 99.95     Cloudy
09:00 Legend Double Dagger 17.4 15.4 88 24 22 19.3 99.96     LegendNANA
10:00 Legend Double Dagger 17.4 15.2 87 24 28 24.1 99.98     LegendNANA
11:00 Legend Double Dagger 18.3 15.0 81 24 28 24.1 99.99     Mostly Cloudy
12:00 Legend Double Dagger 19.1 15.2 78 25 19 24.1 100.02     LegendNANA
13:00 Legend Double Dagger 19.2 14.5 74 24 26 24.1 100.01     LegendNANA
14:00 Legend Double Dagger 19.3 14.2 72 25 23 24.1 100.05     Mostly Cloudy
15:00 Legend Double Dagger 19.8 13.6 67 26 12 24.1 100.09     LegendNANA
16:00 Legend Double Dagger 18.8 12.9 68 25 11 24.1 100.15     LegendNANA
17:00 Legend Double Dagger 17.1 9.6 61 30 11 24.1 100.25     Clear
18:00 Legend Double Dagger 15.7 9.2 65 28 12 24.1 100.39     LegendNANA
19:00 Legend Double Dagger 15.0 8.1 63 29 22 24.1 100.51     LegendNANA
20:00 Legend Double Dagger 14.1 7.5 64 29 21 24.1 100.60     Clear
21:00 Legend Double Dagger 12.8 7.5 70 28 13 24.1 100.75     LegendNANA
22:00 Legend Double Dagger 12.0 7.0 71 30 14 24.1 100.90     LegendNANA
23:00 Legend Double Dagger 10.7 6.5 75 31 8 24.1 100.98     Clear

Notes on Data Quality.

Legend

  • E = Estimated
  • M = Missing
  • NA = Not Available
  • ‡ = Partner data that is not subject to review by the National Climate Archives
Date modified: